Location: Fauquembergues
(50.6005°N, 2.0987°E)
Time: 08:12:23
(UTC+00:00)

Cosmos 841 Rocket - Pass Details

Date: 14 July 2020
Orbit: 747 x 772 km, 74.0° (Epoch: 14 August)

Event Time Altitude Azimuth Distance (km) Brightness Sun altitude
Rises 02:48:39 0° 337° (NNW) 3,209 7.1 -8.5°
Reaches altitude 10° 02:51:03 10° 340° (NNW) 2,282 6.4 -8.3°
Maximum altitude 02:56:11 64° 62° (ENE) 837 4.0 -7.8°
Drops below altitude 10° 03:01:19 10° 145° (SE) 2,281 5.8 -7.2°
Sets 03:03:42 0° 148° (SSE) 3,206 6.6 -7.0°
